Regional Weather Roundup
Issued by NWS Sioux Falls, SD

Home | Current Version | Previous Version | Text Only | Print | Product List | Glossary Off
Versions: 1 2 3 4 5 6 7 8 9 10 11 12 13 14 15 16 17 18 19 20 21 22 23 24 25 26 27 28 29 30 31 32 33 34 35 36 37 38 39 40 41 42 43 44 45 46 47 48 49 50

000
ASUS43 KFSD 191410
RWRFSD

WEATHER ROUNDUP FOR SE SOUTH DAKOTA/SW MINNESOTA/NW IOWA
NATIONAL WEATHER SERVICE SIOUX FALLS SD
900 AM CDT WED JUL 19 2017

NOTE: "FAIR" INDICATES FEW OR NO CLOUDS BELOW 12,000 FEET WITH NO
SIGNIFICANT WEATHER AND OR OBSTRUCTIONS TO VISIBILITY.


SDZ038>040-050-052>070-191500-
SOUTHEAST SOUTH DAKOTA

CITY           SKY/WX    TMP DP  RH WIND       PRES   REMARKS
BROOKINGS      SUNNY     73  68  84 SE13      30.03F
CHAMBERLAIN    CLOUDY    75  72  89 SE13      29.93F
HURON          CLOUDY    73  69  87 SE13      29.96F
MADISON        CLOUDY    68  68 100 SE16      30.03F
MITCHELL       MOSUNNY   76  72  87 SE16      29.97F
SIOUX FALLS    CLOUDY    75  72  90 SE13      30.02S
WINNER         FAIR      79  72  79 S20       29.94F
YANKTON        PTSUNNY   77  73  87 E12       29.99F
$$

MNZ071-072-080-081-089-090-097-098-191500-
SOUTHWEST MINNESOTA

CITY           SKY/WX    TMP DP  RH WIND       PRES   REMARKS
FAIRMONT       SUNNY     74  69  85 SE9       30.09S
JACKSON        CLOUDY    73  68  83 SE10      30.08F
LUVERNE        CLOUDY    72  68  88 SE9       30.05S
MARSHALL       SUNNY     72  64  76 SE13      30.05F
MONTEVIDEO     CLOUDY    73  63  68 S12       30.05F
PIPESTONE      SUNNY     73  70  88 SE14      30.04F
REDWOOD FALLS  SUNNY     72  64  76 SE13      30.06F
TRACY          MOSUNNY   72  67  84 SE9       30.07S
WINDOM         SUNNY     73  66  78 SE14      30.07F
WORTHINGTON    CLOUDY    72  70  93 SE10      30.07F
$$

IAZ001>003-012>014-020>022-031-032-NEZ013-014-SDZ071-191500-
NORTHWEST IOWA

CITY           SKY/WX    TMP DP  RH WIND       PRES   REMARKS
CHEROKEE       MOSUNNY   79  74  83 SE7       30.04F
DENISON        SUNNY     79  72  78 S13G20    30.05F
ESTHERVILLE    PTSUNNY   74  71  91 SE13      30.07F
ORANGE CITY    MOSUNNY   79  73  83 SE8       30.04F
SHELDON        CLOUDY    75  72  88 MISG      30.04F
SIOUX CITY     SUNNY     81  74  79 S12       30.00F
SPENCER        PTSUNNY   75  71  87 E14       30.07S
STORM LAKE     SUNNY     77  73  88 SE8       30.06F
$$

ABBREVIATIONS USED IN REMARKS
   TC - TEMPERATURE IN CELSIUS
  WCI - WIND CHILL INDEX
   HX - HEAT INDEX
  VSB - VISIBILITY





USA.gov is the U.S. government's official web portal to all federal, state and local government web resources and services.